When you browse on this site, cookies collect data to enhance your experience and personalize the content and advertising you see.
Visit our Privacy Policy to learn more. By continuing to use the site, you agree to this use of cookies and data.
  • En España
  • Lista de países
  • Para 7 días
  • Temperatura del agua
  • Mapa Satelital
  • El tiempo en el mapa
  • Informadores
  • user-avatar
    Iniciar sesión

    Tiempo cada hora Kruhlyk

    Hoy, 24 Mayo, Viernes

    Tiempo Temperatura Precipitaciones Viento Presión Humedad
    00:00 +16°C° 0 mm 1 mps 751 mmHg 75%
    01:00 +16°C° 0 mm 1 mps 751 mmHg 77%
    02:00 +16°C° 0 mm 1 mps 750 mmHg 77%
    03:00 +16°C° 0 mm 1 mps 751 mmHg 77%
    04:00 +16°C° 0 mm 1 mps 751 mmHg 78%
    05:00 +15°C° 0 mm 0 mps 751 mmHg 78%
    06:00 +17°C° 0 mm 0 mps 751 mmHg 72%
    07:00 +21°C° 0 mm 1 mps 751 mmHg 65%
    08:00 +21°C° 0 mm 0 mps 751 mmHg 60%
    09:00 +24°C° 0 mm 1 mps 751 mmHg 56%
    10:00 +24°C° 0 mm 1 mps 751 mmHg 52%
    11:00 +25°C° 0 mm 2 mps 751 mmHg 48%
    12:00 +26°C° 0 mm 2 mps 750 mmHg 46%
    13:00 +26°C° 0 mm 2 mps 750 mmHg 45%
    14:00 +27°C° 0 mm 2 mps 750 mmHg 43%
    15:00 +27°C° 0 mm 2 mps 750 mmHg 46%
    16:00 +26°C° 0 mm 2 mps 750 mmHg 49%
    17:00 +26°C° 0 mm 2 mps 750 mmHg 52%
    18:00 +25°C° 0 mm 2 mps 750 mmHg 54%
    19:00 +24°C° 0 mm 2 mps 750 mmHg 56%
    20:00 +23°C° 0 mm 1 mps 750 mmHg 58%
    21:00 +21°C° 0.2 mm 2 mps 750 mmHg 63%
    22:00 +20°C° 0.2 mm 2 mps 750 mmHg 68%
    23:00 +19°C° 0.2 mm 3 mps 750 mmHg 73%

    Mañana, 25 Mayo, Sábado

    Tiempo Temperatura Precipitaciones Viento Presión Humedad
    00:00 +18°C° 1 mm 2 mps 750 mmHg 76%
    01:00 +18°C° 1 mm 2 mps 750 mmHg 80%
    02:00 +17°C° 1 mm 2 mps 750 mmHg 83%
    03:00 +17°C° 0 mm 2 mps 750 mmHg 83%
    04:00 +17°C° 0 mm 2 mps 749 mmHg 82%
    05:00 +17°C° 0 mm 2 mps 749 mmHg 82%
    06:00 +18°C° 0 mm 2 mps 749 mmHg 76%
    07:00 +20°C° 0 mm 2 mps 749 mmHg 70%
    08:00 +23°C° 0 mm 2 mps 749 mmHg 64%
    09:00 +24°C° 0.3 mm 2 mps 749 mmHg 59%
    10:00 +25°C° 0.3 mm 2 mps 749 mmHg 54%
    11:00 +26°C° 0.3 mm 2 mps 749 mmHg 49%
    12:00 +26°C° 0 mm 2 mps 749 mmHg 48%
    13:00 +26°C° 0 mm 2 mps 748 mmHg 46%
    14:00 +27°C° 0 mm 1 mps 748 mmHg 45%
    15:00 +26°C° 0.2 mm 2 mps 748 mmHg 47%
    16:00 +26°C° 0.2 mm 2 mps 748 mmHg 50%
    17:00 +26°C° 0.2 mm 2 mps 748 mmHg 52%
    18:00 +25°C° 0 mm 2 mps 748 mmHg 56%
    19:00 +23°C° 0 mm 2 mps 748 mmHg 60%
    20:00 +21°C° 0 mm 2 mps 748 mmHg 63%
    21:00 +21°C° 1.4 mm 1 mps 748 mmHg 69%
    22:00 +20°C° 1.4 mm 1 mps 748 mmHg 76%
    23:00 +19°C° 1.4 mm 1 mps 748 mmHg 82%

    Pasado mañana, 26 Mayo, Domingo

    Tiempo Temperatura Precipitaciones Viento Presión Humedad
    00:00 +18°C° 0.6 mm 2 mps 748 mmHg 85%
    01:00 +17°C° 0.6 mm 3 mps 748 mmHg 88%
    02:00 +17°C° 0.6 mm 3 mps 748 mmHg 91%
    03:00 +17°C° 0.2 mm 3 mps 749 mmHg 91%
    04:00 +17°C° 0.2 mm 4 mps 749 mmHg 92%
    05:00 +17°C° 0.2 mm 4 mps 749 mmHg 92%
    06:00 +18°C° 0.1 mm 4 mps 749 mmHg 86%
    07:00 +20°C° 0.1 mm 4 mps 749 mmHg 81%
    08:00 +21°C° 0.1 mm 4 mps 750 mmHg 75%
    09:00 +23°C° 0.9 mm 4 mps 750 mmHg 69%
    10:00 +25°C° 0.9 mm 4 mps 750 mmHg 63%
    11:00 +26°C° 0.9 mm 5 mps 750 mmHg 57%
    12:00 +26°C° 1 mm 5 mps 750 mmHg 56%
    13:00 +27°C° 1 mm 5 mps 750 mmHg 55%
    14:00 +27°C° 1 mm 5 mps 750 mmHg 54%
    15:00 +26°C° 0.4 mm 5 mps 751 mmHg 58%
    16:00 +26°C° 0.4 mm 4 mps 751 mmHg 62%
    17:00 +25°C° 0.4 mm 4 mps 751 mmHg 65%
    18:00 +24°C° 0 mm 3 mps 751 mmHg 68%
    19:00 +21°C° 0 mm 3 mps 752 mmHg 70%
    20:00 +20°C° 0 mm 3 mps 752 mmHg 73%
    21:00 +19°C° 0 mm 3 mps 753 mmHg 73%
    22:00 +19°C° 0 mm 3 mps 753 mmHg 74%
    23:00 +18°C° 0 mm 2 mps 754 mmHg 75%

    27 Mayo, Lunes

    Tiempo Temperatura Precipitaciones Viento Presión Humedad
    00:00 +18°C° 0 mm 2 mps 754 mmHg 76%
    01:00 +17°C° 0 mm 2 mps 754 mmHg 78%
    02:00 +17°C° 0 mm 2 mps 754 mmHg 79%
    03:00 +17°C° 0 mm 2 mps 755 mmHg 80%
    04:00 +18°C° 0 mm 1 mps 755 mmHg 81%
    05:00 +19°C° 0 mm 1 mps 755 mmHg 82%
    06:00 +19°C° 0 mm 2 mps 756 mmHg 75%
    07:00 +21°C° 0 mm 2 mps 756 mmHg 69%
    08:00 +24°C° 0 mm 2 mps 757 mmHg 63%
    09:00 +25°C° 0 mm 2 mps 757 mmHg 59%
    10:00 +26°C° 0 mm 2 mps 757 mmHg 54%
    11:00 +27°C° 0 mm 2 mps 757 mmHg 49%
    12:00 +28°C° 0 mm 3 mps 757 mmHg 48%
    13:00 +28°C° 0 mm 3 mps 757 mmHg 46%
    14:00 +29°C° 0 mm 3 mps 757 mmHg 45%
    15:00 +29°C° 0 mm 3 mps 757 mmHg 45%
    16:00 +29°C° 0 mm 3 mps 757 mmHg 46%
    17:00 +28°C° 0 mm 2 mps 757 mmHg 47%
    18:00 +27°C° 0 mm 2 mps 757 mmHg 50%
    19:00 +25°C° 0 mm 2 mps 757 mmHg 54%
    20:00 +24°C° 0 mm 2 mps 757 mmHg 57%
    21:00 +23°C° 0 mm 2 mps 757 mmHg 62%
    22:00 +21°C° 0 mm 3 mps 757 mmHg 67%
    23:00 +20°C° 0 mm 4 mps 757 mmHg 73%

    28 Mayo, Martes

    Tiempo Temperatura Precipitaciones Viento Presión Humedad
    00:00 +20°C° 0 mm 4 mps 758 mmHg 74%
    01:00 +19°C° 0 mm 3 mps 758 mmHg 76%
    02:00 +19°C° 0 mm 3 mps 758 mmHg 77%
    03:00 +19°C° 0 mm 3 mps 758 mmHg 78%
    04:00 +19°C° 0 mm 2 mps 758 mmHg 79%
    05:00 +19°C° 0 mm 2 mps 758 mmHg 80%
    06:00 +21°C° 0 mm 2 mps 758 mmHg 74%
    07:00 +24°C° 0 mm 2 mps 758 mmHg 67%
    08:00 +26°C° 0 mm 3 mps 758 mmHg 61%
    09:00 +26°C° 0 mm 3 mps 758 mmHg 56%
    10:00 +27°C° 0 mm 4 mps 758 mmHg 52%
    11:00 +28°C° 0 mm 5 mps 758 mmHg 48%
    12:00 +29°C° 0 mm 5 mps 758 mmHg 47%
    13:00 +29°C° 0 mm 5 mps 757 mmHg 46%
    14:00 +30°C° 0 mm 6 mps 757 mmHg 46%
    15:00 +29°C° 0 mm 5 mps 757 mmHg 47%
    16:00 +28°C° 0 mm 5 mps 757 mmHg 49%
    17:00 +28°C° 0 mm 5 mps 756 mmHg 50%
    18:00 +26°C° 0 mm 5 mps 756 mmHg 56%
    19:00 +23°C° 0 mm 4 mps 757 mmHg 62%
    20:00 +21°C° 0 mm 4 mps 757 mmHg 68%
    21:00 +21°C° 0 mm 4 mps 757 mmHg 73%
    22:00 +20°C° 0 mm 4 mps 757 mmHg 77%
    23:00 +20°C° 0 mm 3 mps 757 mmHg 81%

    29 Mayo, Miércoles

    Tiempo Temperatura Precipitaciones Viento Presión Humedad
    00:00 +19°C° 0 mm 3 mps 757 mmHg 82%
    01:00 +19°C° 0 mm 3 mps 757 mmHg 83%
    02:00 +19°C° 0 mm 3 mps 756 mmHg 84%
    03:00 +19°C° 0 mm 4 mps 756 mmHg 84%
    04:00 +19°C° 0 mm 4 mps 756 mmHg 85%
    05:00 +20°C° 0 mm 4 mps 756 mmHg 85%
    06:00 +22°C° 0 mm 5 mps 756 mmHg 77%
    07:00 +24°C° 0 mm 6 mps 756 mmHg 69%
    08:00 +27°C° 0 mm 7 mps 756 mmHg 60%
    09:00 +28°C° 0 mm 7 mps 756 mmHg 56%
    10:00 +29°C° 0 mm 7 mps 756 mmHg 51%
    11:00 +31°C° 0 mm 8 mps 755 mmHg 46%
    12:00 +30°C° 0 mm 7 mps 755 mmHg 45%
    13:00 +32°C° 0 mm 7 mps 755 mmHg 44%
    14:00 +32°C° 0 mm 7 mps 755 mmHg 42%
    15:00 +32°C° 0 mm 7 mps 755 mmHg 46%
    16:00 +30°C° 0 mm 6 mps 755 mmHg 50%
    17:00 +29°C° 0 mm 5 mps 755 mmHg 54%
    18:00 +27°C° 0 mm 5 mps 755 mmHg 60%
    19:00 +26°C° 0 mm 4 mps 755 mmHg 66%
    20:00 +23°C° 0 mm 4 mps 755 mmHg 71%
    21:00 +22°C° 0 mm 3 mps 755 mmHg 74%
    22:00 +22°C° 0 mm 3 mps 755 mmHg 76%
    23:00 +21°C° 0 mm 3 mps 755 mmHg 79%
    Mostrar más